This is the latest recevied weather packets stored in our database for station/object 9W3FAB-3. If no packets are shown the sender has not sent any weather packets the latest 10 day(s).
| Time | Temp. | Humidity | Pressure | Rain* | Wind** | Luminosity | Snow |
|---|---|---|---|---|---|---|---|
| 1777957773 | 25.56° C | 64% | 1006 hPa | - | - | - | - |
| 1777956872 | 25.56° C | 61% | 1006.1 hPa | - | - | - | - |
| 1777955971 | 25° C | 59% | 1006.4 hPa | - | - | - | - |
| 1777955070 | 25° C | 55% | 1006.6 hPa | - | - | - | - |
| 1777954169 | 24.44° C | 56% | 1006.8 hPa | - | - | - | - |
| 1777943405 | 24.44° C | 58% | 1009.4 hPa | - | - | - | - |
| 1777926286 | 27.22° C | 71% | 1007.8 hPa | - | - | - | - |
| 1777925385 | 27.22° C | 70% | 1007.9 hPa | - | - | - | - |
| 1777923590 | 27.22° C | 69% | 1008.3 hPa | - | - | - | - |
| 1777921790 | 27.22° C | 69% | 1008.5 hPa | - | - | - | - |
| 1777918178 | 27.22° C | 71% | 1008.7 hPa | - | - | - | - |
| 1777917277 | 27.22° C | 71% | 1008.7 hPa | - | - | - | - |
| 1777916376 | 27.22° C | 70% | 1008.8 hPa | - | - | - | - |
| 1777914574 | 27.22° C | 70% | 1009.3 hPa | - | - | - | - |
| 1777912773 | 27.22° C | 70% | 1009.4 hPa | - | - | - | - |
| 1777911872 | 27.22° C | 70% | 1009.4 hPa | - | - | - | - |
| 1777910069 | 27.22° C | 69% | 1009.7 hPa | - | - | - | - |
| 1777909169 | 27.22° C | 69% | 1009.7 hPa | - | - | - | - |
| 1777907364 | 27.22° C | 69% | 1009.3 hPa | - | - | - | - |
| 1777905612 | 27.22° C | 66% | 1009.2 hPa | - | - | - | - |
| 1777901108 | 26.67° C | 64% | 1008.8 hPa | - | - | - | - |
| 1777898404 | 26.67° C | 64% | 1008.5 hPa | - | - | - | - |
| 1777897503 | 26.67° C | 63% | 1008.5 hPa | - | - | - | - |
| 1777896602 | 26.67° C | 64% | 1008.5 hPa | - | - | - | - |
| 1777895701 | 26.67° C | 63% | 1008.2 hPa | - | - | - | - |
* Rain since midnight (hover to see other rain measurements)
** Current wind speed in m/s (hover to see current wind gust speed)